Retour au catalogue

CZ-4 DEB

ActifSSO
NORAD 23261·DEBRIS·🇨🇳 China

Lancé Sep 3, 1990 depuis Taiyuan Satellite Launch Center

Loading…

Prochains Passages (prochaines 24 heures)

TLE

FraisSource: Space-Track

Époque: Sep 14, 2026, 00:47 UTC

1 23261U 90081CS  26257.03272896  .00005629  00000-0  85239-3 0  9993
2 23261  98.2322 288.2570 0015486  24.9984   4.5619 14.74508389855725

Suivez CZ-4 DEB en temps réel avec AllMySat

Download on the App Store